Fort Rucker / Ozark, AL

12:48 PM CDT on March 25, 2017 (GMT -0500)
Fort Rucker / Ozark

Weather History for KLOR - January, 2013

Change the Weather History Date:

Monday, January 21, 2013

  Actual Average (KOZR) Record (KOZR)
Temperature  
Mean Temperature 50 °F -  
Max Temperature 66 °F 58 °F 80 °F (1999)
Min Temperature 34 °F 36 °F 20 °F (2009)
Degree Days  
Heating Degree Days 15    
Moisture  
Dew Point 37 °F    
Average Humidity 64    
Maximum Humidity 93    
Minimum Humidity 34    
Precipitation  
Precipitation 0.00 in - - ()
Sea Level Pressure  
Sea Level Pressure 30.14 in    
Wind  
Wind Speed 2 mph (North)    
Max Wind Speed 10 mph    
Max Gust Speed -    
Visibility 9 miles    
Events      
Averages and records for this station are not official NWS values.
T = Trace of Precipitation, MM = Missing Value Source: NWS Daily Summary

Daily Weather History Graph

Daily Weather History Graph

Search for Another Location

Airport or City:

Trip Planner

Search our weather history database for the weather conditions in past years. The results will help you decide how hot, cold, wet, or windy it might be!

Date:

Astronomy

Jan. 21, 2013 Rise Set
Actual Time 6:40 AM CST 5:08 PM CST
Civil Twilight 6:14 AM CST 5:34 PM CST
Nautical Twilight 5:45 AM CST 6:03 PM CST
Astronomical Twilight 5:16 AM CST 6:32 PM CST
Moon 12:49 PM CST (1/21) 2:07 AM CST (1/21)
Length of Visible Light 11h 19m
Length of Day
10h 27m
Waxing Gibbous, 75% of the Moon is Illuminated
Jan 21
Waxing Gibbous
Jan 26
Full
Feb 3
Last Quarter
Feb 10
New
Feb 17
First Quarter

Hourly Weather History & Observations

Time (CST) Temp. Dew Point Humidity Pressure Visibility Wind Dir Wind Speed Gust Speed Precip Events Conditions
12:53 AM 37.9 °F 36.0 °F 93% 30.13 in 9.0 mi Calm Calm - N/A   Clear
1:53 AM 37.0 °F 35.1 °F 93% 30.12 in 9.0 mi Calm Calm - N/A   Clear
2:53 AM 37.0 °F 35.1 °F 93% 30.10 in 7.0 mi Calm Calm - N/A   Clear
3:53 AM 36.0 °F 34.0 °F 93% 30.09 in 7.0 mi Calm Calm - N/A   Clear
4:53 AM 35.1 °F 33.1 °F 92% 30.10 in 7.0 mi Calm Calm - N/A   Clear
5:53 AM 34.0 °F 32.0 °F 92% 30.13 in 8.0 mi Calm Calm - N/A   Clear
6:53 AM 34.0 °F 32.0 °F 92% 30.14 in 5.0 mi Calm Calm - N/A   Clear
7:53 AM 36.0 °F 34.0 °F 93% 30.16 in - Calm Calm - N/A   Clear
8:53 AM 46.9 °F 42.1 °F 83% 30.19 in 10.0 mi Calm Calm - N/A   Clear
9:53 AM 57.9 °F 44.1 °F 60% 30.19 in 10.0 mi Calm Calm - N/A   Clear
10:53 AM 63.0 °F 39.9 °F 43% 30.16 in 10.0 mi Variable 4.6 mph - N/A   Clear
11:53 AM 64.9 °F 37.9 °F 37% 30.12 in 10.0 mi NNE 5.8 mph - N/A   Clear
12:53 PM 66.0 °F 39.0 °F 37% 30.09 in 10.0 mi Variable 6.9 mph - N/A   Clear
1:53 PM 66.9 °F 37.9 °F 34% 30.09 in 10.0 mi Variable 3.5 mph - N/A   Clear
2:53 PM 66.9 °F 37.9 °F 34% 30.08 in 10.0 mi NW 10.4 mph - N/A   Clear
3:53 PM 64.9 °F 37.9 °F 37% 30.10 in 10.0 mi NNW 9.2 mph - N/A   Clear
4:53 PM 61.0 °F 39.0 °F 44% 30.11 in 10.0 mi NNW 5.8 mph - N/A   Clear
5:53 PM 57.0 °F 39.0 °F 51% 30.13 in 10.0 mi North 3.5 mph - N/A   Clear
6:53 PM 55.9 °F 37.9 °F 51% 30.14 in 10.0 mi North 4.6 mph - N/A   Clear
7:53 PM 54.0 °F 37.0 °F 53% 30.17 in 10.0 mi North 5.8 mph - N/A   Clear
8:53 PM 52.0 °F 37.0 °F 57% 30.17 in 10.0 mi North 4.6 mph - N/A   Clear
9:53 PM 50.0 °F 35.1 °F 57% 30.19 in 10.0 mi North 4.6 mph - N/A   Clear
10:53 PM 48.0 °F 33.1 °F 56% 30.18 in 10.0 mi North 4.6 mph - N/A   Clear
11:53 PM 46.9 °F 30.9 °F 54% 30.18 in 10.0 mi North 4.6 mph - N/A   Clear